Flag for Norway Weather past 2 weeks in Finse, Norway

Now
19 °F

Cold.


Feels Like: 12 °F
Forecast: 11 / 26 °F
Wind: 5 mph from Northwest

Location: Finsevatn

Current Time: Mar 4, 2015 at 4:18:31 AM

Latest Report: Mar 4, 2015 at 4:00 AM


Visibility: N/A

Pressure: 29.68 "Hg

Humidity: 89%

Dew point: 17 °F

Location of FinseLocation

Historic Weather in Finse — Graph

°F

Finse temperature yesterday

Maximum temperature yesterday: 25 °F (at 3:00 PM)
Minimum temperature yesterday: 15 °F (at 4:00 AM)
Average temperature yesterday: 20 °F

Past Weeks' High & Low Weather Summary

 TemperatureHumidityPressure
High38 °F (Feb 19, 5:00 AM)96% (Feb 17, 7:00 PM)30.06 "Hg (Feb 17, 7:00 PM)
Low11 °F (Feb 22, 7:00 PM)64% (Feb 27, 2:00 PM)28.79 "Hg (Mar 1, 5:00 PM)
Average25 °F88%29.44 "Hg
* Reported Feb 17 3:00 AM — Mar 4 3:00 AM, Finse, Weather by CustomWeather, © 2015

Note: Actual official high and low records may vary slightly from our data, if they occured in-between our weather recording intervals... More about our weather records

Advertising

Finse weather history for previous 24 hours

 ConditionsComfort  
Time TempWeatherWind HumidityBarometerVisibility
3:00 AM
Wed, Mar 4
17 °FCold.2 mph88%29.70 "HgN/A
2:00 AM17 °FCold.2 mph92%29.69 "HgN/A
1:00 AM15 °FCold.1 mph88%29.70 "HgN/A
12:00 AM14 °FCold.5 mph91%29.70 "HgN/A
11:00 PM
Tue, Mar 3
18 °FCold.7 mph92%29.65 "HgN/A
10:00 PM20 °FCold.5 mph92%29.61 "HgN/A
9:00 PM18 °FCold.1 mph85%29.62 "HgN/A
8:00 PM17 °FCold.1 mph87%29.62 "HgN/A
7:00 PM21 °FCold.3 mph85%29.58 "HgN/A
6:00 PM19 °FCold.1 mph88%29.59 "HgN/A
5:00 PM19 °FCold.1 mph83%29.58 "HgN/A
4:00 PM18 °FCold.6 mph79%29.58 "HgN/A
3:00 PM25 °FChilly.1 mph65%29.50 "HgN/A
2:00 PM20 °FCold.6 mph74%29.54 "HgN/A
1:00 PM21 °FCold.8 mph79%29.50 "HgN/A
12:00 PM21 °FCold.10 mph83%29.50 "HgN/A
11:00 AM22 °FCold.7 mph83%29.47 "HgN/A
10:00 AM22 °FCold.7 mph84%29.47 "HgN/A
9:00 AM22 °FCold.7 mph88%29.44 "HgN/A
8:00 AM21 °FCold.6 mph89%29.44 "HgN/A
7:00 AM22 °FCold.5 mph89%29.41 "HgN/A
6:00 AM22 °FCold.2 mph92%29.41 "HgN/A
5:00 AM21 °FCold.5 mph95%29.41 "HgN/A
4:00 AM15 °FCold.1 mph91%29.47 "HgN/A
Weather by CustomWeather, © 2015

See weather overviewHow to use our weather pages